FW6644 Weather Reports


Display with metric or nautical units.
time (UTC)temp
F
wind
direction
speed
MPH
gust
MPH
rain 1hr
in
rain 24hr
in
rain mn
in
humidity
%
barometer
mb
20260504050113 80 157 4.0 12.0 0.00 0.00 0.00 25 1007.0
20260504044519 81 233 4.0 13.0 0.00 0.00 0.00 24 1006.9
20260504043012 82 63 5.0 12.0 0.00 0.00 0.00 22 1006.7
20260504041509 82 238 4.0 13.0 0.00 0.00 0.00 21 1006.3
20260504040012 83 342 6.0 15.0 0.00 0.00 0.00 21 1005.9
20260504034509 83 312 6.0 14.0 0.00 0.00 0.00 20 1005.7
20260504033008 84 191 8.0 19.0 0.00 0.00 0.00 19 1005.2
20260504031508 84 274 6.0 15.0 0.00 0.00 0.00 18 1005.0
20260504030030 85 191 6.0 12.0 0.00 0.00 0.00 17 1004.7
20260504024508 86 141 8.0 16.0 0.00 0.00 0.00 17 1004.3
20260504023007 87 143 7.0 22.0 0.00 0.00 0.00 16 1004.1
20260504021504 88 130 7.0 14.0 0.00 0.00 0.00 16 1003.8
20260504020005 89 204 9.0 18.0 0.00 0.00 0.00 16 1003.4
20260504014513 90 85 8.0 18.0 0.00 0.00 0.00 14 1003.3
20260504013003 91 181 5.0 12.0 0.00 0.00 0.00 12 1003.0
20260504011503 93 278 5.0 14.0 0.00 0.00 0.00 12 1003.0
20260504010003 94 204 6.0 15.0 0.00 0.00 0.00 12 1003.0
20260504004507 94 181 6.0 14.0 0.00 0.00 0.00 12 1003.0
20260504003005 95 51 5.0 15.0 0.00 0.00 0.00 12 1002.9
20260504001613 96 213 6.0 14.0 0.00 0.00 0.00 11 1003.0
20260504000059 96 214 6.0 18.0 0.00 0.00 0.00 12 1002.9
20260503234559 97 155 7.0 13.0 0.00 0.00 0.00 12 1002.8
20260503233058 97 215 6.0 14.0 0.00 0.00 0.00 11 1002.9
20260503231557 97 106 8.0 14.0 0.00 0.00 0.00 12 1003.1
20260503230100 97 304 3.0 9.0 0.00 0.00 0.00 12 1003.3
20260503224551 97 163 3.0 13.0 0.00 0.00 0.00 13 1003.6
20260503223056 97 205 2.0 8.0 0.00 0.00 0.00 13 1003.9
20260503221548 97 153 5.0 12.0 0.00 0.00 0.00 12 1004.2
20260503220044 96 226 6.0 12.0 0.00 0.00 0.00 13 1004.5
20260503214541 96 198 7.0 11.0 0.00 0.00 0.00 13 1004.8
20260503213056 96 356 6.0 17.0 0.00 0.00 0.00 13 1005.0
20260503211535 96 232 3.0 11.0 0.00 0.00 0.00 14 1005.2
20260503210031 95 238 5.0 13.0 0.00 0.00 0.00 14 1005.7
20260503204544 95 184 3.0 12.0 0.00 0.00 0.00 15 1005.8
20260503203028 96 180 5.0 15.0 0.00 0.00 0.00 15 1006.2
20260503201526 94 130 4.0 12.0 0.00 0.00 0.00 16 1006.2
20260503200024 95 160 4.0 12.0 0.00 0.00 0.00 16 1006.5
20260503194525 95 334 3.0 14.0 0.00 0.00 0.00 16 1006.5
20260503193027 95 126 2.0 10.0 0.00 0.00 0.00 16 1006.9
20260503191518 95 162 4.0 10.0 0.00 0.00 0.00 18 1007.1
20260503190017 93 187 0.0 11.0 0.00 0.00 0.00 20 1007.2
20260503184524 91 117 2.0 9.0 0.00 0.00 0.00 22 1007.5
20260503183007 90 194 4.0 9.0 0.00 0.00 0.00 22 1007.8
20260503181508 89 160 3.0 12.0 0.00 0.00 0.00 23 1008.0
20260503180017 89 52 4.0 16.0 0.00 0.00 0.00 23 1008.2
20260503174506 88 91 5.0 12.0 0.00 0.00 0.00 23 1008.3
20260503173120 88 125 6.0 12.0 0.00 0.00 0.00 24 1008.7
20260503171558 87 268 4.0 9.0 0.00 0.00 0.00 24 1008.5
20260503081506 78 27 0.0 2.0 0.00 0.00 0.00 25 1008.1